This is the latest recevied weather packets stored in our database for station/object W1REE. If no packets are shown the sender has not sent any weather packets the latest 10 day(s).
| Time | Temp. | Humidity | Pressure | Rain* | Wind** | Luminosity | Snow |
|---|---|---|---|---|---|---|---|
| 1778030199 | 1.67° C | 97% | 1014 hPa | 3.05 mm | - | 5 W/m² | - |
| 1778029895 | 1.67° C | 97% | 1014 hPa | 1.78 mm | - | 5 W/m² | - |
| 1778029594 | 1.67° C | 97% | 1013.9 hPa | 1.27 mm | - | 5 W/m² | - |
| 1778029291 | 1.67° C | 97% | 1013.7 hPa | 1.27 mm | - | 6 W/m² | - |
| 1778028988 | 1.67° C | 97% | 1013.9 hPa | 1.78 mm | - | 7 W/m² | - |
| 1778028684 | 1.67° C | 97% | 1014.1 hPa | 1.78 mm | - | 6 W/m² | - |
| 1778028381 | 1.67° C | 97% | 1014 hPa | 0 mm | - | 8 W/m² | - |
| 1778028078 | 2.22° C | 97% | 1013.9 hPa | 1.78 mm | - | 9 W/m² | - |
| 1778027775 | 2.22° C | 97% | 1014.1 hPa | 1.78 mm | - | 11 W/m² | - |
| 1778027471 | 2.22° C | 97% | 1014.2 hPa | 0 mm | - | 8 W/m² | - |
| 1778027167 | 2.22° C | 97% | 1014.2 hPa | 0 mm | - | 8 W/m² | - |
| 1778026863 | 2.22° C | 97% | 1014.1 hPa | 1.27 mm | - | 8 W/m² | - |
| 1778026559 | 2.22° C | 97% | 1014.1 hPa | 1.27 mm | - | 12 W/m² | - |
| 1778026256 | 2.22° C | 97% | 1014 hPa | 0 mm | - | 12 W/m² | - |
| 1778025954 | 2.22° C | 97% | 1013.6 hPa | 0 mm | - | 10 W/m² | - |
| 1778025651 | 2.22° C | 97% | 1013.5 hPa | 0 mm | - | 11 W/m² | - |
| 1778025349 | 2.22° C | 97% | 1013.5 hPa | 0 mm | - | 14 W/m² | - |
| 1778025046 | 2.22° C | 97% | 1013.6 hPa | 0 mm | - | 15 W/m² | - |
| 1778024743 | 2.22° C | 96% | 1013.4 hPa | 0 mm | - | 25 W/m² | - |
| 1778024439 | 2.22° C | 96% | 1013.3 hPa | 0 mm | - | 29 W/m² | - |
| 1778024137 | 2.22° C | 96% | 1013.1 hPa | 0 mm | - | 32 W/m² | - |
| 1778023834 | 2.22° C | 96% | 1013 hPa | 1.78 mm | - | 29 W/m² | - |
| 1778023532 | 2.22° C | 96% | 1012.9 hPa | 1.78 mm | - | 35 W/m² | - |
| 1778023229 | 2.22° C | 96% | 1013 hPa | 1.27 mm | - | 30 W/m² | - |
| 1778022926 | 2.22° C | 96% | 1012.8 hPa | 1.27 mm | - | 32 W/m² | - |
* Rain latest hour (hover to see other rain measurements)
** Current wind speed in m/s (hover to see current wind gust speed)